Theta_e
309 307 306 306 306 306 307 309 314 319 323 325 325 327 329 329 330 329 331 333 333 333 333 332 331 331 332 332 331 333 334 337 336 336 336 336 336 335 334 333 332 330 329 330 328 325 327 326 324 323 320 318 318 319 320 319 318 315 314 311 309 307 307 309 310 309 307 306 306 305 305 306 306 306 307 307 307 309 310 311 312 313 315 315 315
305 305 304 303 304 306 306 306 307 311 317 321 323 325 326 328 328 329 329 330 331 332 333 332 333 332 331 331 333 334 334 333 334 336 335 336 336 336 335 334 333 331 329 329 328 327 325 325 324 323 321 319 319 319 319 317 317 312 312 311 310 308 309 311 309 306 303 303 304 306 309 308 307 307 306 306 307 308 309 310 311 312 312 313 314
304 303 304 303 304 305 303 305 306 308 312 317 321 323 324 326 327 328 329 329 329 331 332 332 333 333 333 332 333 334 337 336 335 335 336 336 336 337 337 336 335 333 332 329 328 327 325 324 323 324 322 321 318 318 319 318 315 313 313 312 311 309 309 310 309 307 305 307 307 305 304 306 312 308 309 308 308 308 308 309 309 309 310 311 312
303 303 302 303 304 303 304 304 304 305 306 309 315 320 322 323 325 326 327 328 328 329 330 332 334 335 335 334 334 334 333 333 335 336 336 336 335 335 335 336 336 334 333 331 329 328 327 326 325 326 326 323 320 319 319 317 316 315 313 311 312 307 306 307 308 308 307 307 303 304 306 305 304 309 311 311 309 309 308 308 308 308 309 309 308
301 302 305 305 305 306 305 304 302 304 306 307 310 314 317 321 323 325 326 326 327 327 329 330 332 331 332 330 333 332 331 331 331 331 330 329 333 335 335 337 336 335 335 334 329 329 330 329 327 327 326 322 319 317 318 316 314 314 312 311 311 310 309 309 308 307 306 308 309 308 304 302 303 308 307 308 312 309 308 308 308 308 308 307 306
300 302 304 305 306 307 307 306 306 305 305 307 310 311 315 317 320 323 324 325 326 326 327 328 328 327 327 326 324 325 325 324 324 326 327 328 329 332 334 335 335 335 335 335 335 330 330 330 329 328 326 323 319 318 319 319 317 315 313 312 310 311 313 312 309 305 305 306 308 311 312 308 309 306 306 305 309 311 311 309 308 307 308 307 307
305 305 306 307 306 308 307 307 307 307 306 305 305 308 312 316 319 320 322 323 325 325 326 326 326 326 326 326 326 325 324 325 328 329 328 329 331 330 331 332 333 332 333 335 335 335 333 332 331 329 328 326 323 320 319 317 316 316 316 314 312 312 311 310 310 308 304 305 307 309 309 309 309 307 306 309 307 310 306 306 306 305 305 305 306
305 306 306 306 306 306 305 306 305 305 305 306 307 309 312 314 317 319 321 322 323 324 324 325 325 325 325 325 325 324 324 324 326 327 329 328 328 328 328 329 330 330 331 332 333 333 333 332 332 331 329 328 324 321 320 319 318 316 314 314 315 315 313 309 310 313 307 306 304 304 305 306 307 309 309 306 305 301 304 304 303 304 303 303 304
303 306 306 306 306 306 305 306 305 306 307 309 309 311 313 315 317 319 320 321 322 323 324 324 325 325 325 324 323 324 325 325 326 326 325 326 325 326 326 327 328 329 330 330 330 332 331 331 331 331 329 329 323 324 323 322 320 319 317 314 314 314 313 312 312 313 310 308 303 302 304 305 306 307 307 306 301 300 301 303 305 305 302 302 302
304 304 305 305 305 305 305 306 306 305 306 308 311 313 313 315 316 318 318 320 321 322 323 324 324 324 324 324 323 323 324 323 323 322 322 323 322 323 324 324 325 325 326 327 328 329 330 330 330 329 329 330 325 326 324 322 321 320 320 316 315 314 313 312 312 312 313 310 310 311 305 304 305 305 304 304 304 303 300 302 306 306 303 303 301
304 304 304 304 305 305 306 306 306 306 307 309 310 313 315 314 314 314 314 315 316 319 320 322 322 323 323 323 322 322 323 322 321 320 321 320 319 321 322 322 322 323 323 324 325 326 327 327 328 328 328 327 325 327 325 324 323 322 322 321 317 315 315 314 311 311 311 311 310 310 310 306 305 305 306 305 304 300 299 298 301 303 303 304 306
304 304 304 305 306 306 307 306 306 307 307 307 308 310 312 316 316 314 313 313 312 313 316 318 319 319 320 321 321 322 321 320 319 319 320 320 320 319 320 321 320 320 320 320 321 323 324 324 325 325 325 326 325 326 327 327 326 324 323 321 320 318 317 315 314 311 310 311 311 310 309 310 309 308 309 307 303 302 303 303 303 306 306 307 308
303 304 304 305 305 305 306 306 306 306 306 306 306 308 309 310 313 312 310 311 314 313 315 315 315 316 317 317 318 319 319 319 319 318 319 318 319 318 318 317 318 317 319 319 321 322 322 321 322 322 322 323 323 324 324 325 326 325 324 322 321 319 317 316 314 314 313 312 312 313 313 311 309 310 309 308 307 306 304 303 305 306 303 305 307
302 303 303 303 304 304 304 305 305 305 305 306 306 307 308 308 309 308 307 308 309 311 312 313 314 315 315 315 315 316 316 316 316 316 316 317 317 316 317 317 317 317 318 318 320 320 321 320 320 321 321 322 322 322 323 323 324 323 323 322 321 321 320 317 315 315 314 313 312 311 312 313 312 312 310 309 307 306 305 304 304 305 305 304 307
302 302 302 302 302 303 303 303 304 304 305 306 306 307 308 307 308 308 307 307 307 308 309 309 310 310 310 312 312 313 313 313 313 314 314 314 314 314 315 315 315 316 317 318 318 318 318 319 319 319 319 320 320 320 320 320 321 321 321 321 321 322 322 320 317 316 315 316 315 313 313 312 311 310 309 308 308 306 306 306 304 301 302 304 303
301 302 301 301 301 302 302 302 303 303 304 305 305 306 307 307 306 306 306 306 306 307 307 307 307 308 308 309 309 310 310 311 312 312 312 313 313 312 313 313 314 314 315 315 316 316 316 316 316 317 317 318 318 318 318 318 319 318 318 319 318 320 319 319 319 319 317 317 317 316 314 313 313 311 309 308 308 307 307 307 307 304 301 297 302
301 301 301 301 301 301 302 302 302 302 302 302 302 303 304 305 305 305 305 305 305 305 306 306 307 307 307 307 307 308 309 309 309 310 310 311 311 311 311 312 312 312 313 313 312 313 313 313 314 314 315 315 316 316 316 316 317 316 316 316 316 317 318 317 317 316 316 317 316 316 315 314 313 313 311 310 309 308 307 307 307 305 304 300 298
299 299 300 300 300 300 300 301 301 301 301 301 301 302 302 303 303 303 303 302 302 303 303 303 305 305 306 306 306 306 306 307 308 308 309 308 309 310 310 310 310 311 311 311 310 310 311 309 311 311 312 313 313 314 314 314 314 314 314 314 315 315 315 315 315 315 314 315 314 314 314 313 313 312 312 312 311 309 307 306 306 305 305 302 301
300 299 300 300 300 300 300 299 300 300 300 301 301 301 302 301 302 301 301 301 301 302 302 303 303 304 304 304 304 304 305 305 306 306 307 307 307 307 307 308 308 309 308 309 308 308 308 309 309 309 310 310 311 312 312 312 312 311 311 311 312 313 312 311 312 312 313 313 312 312 312 312 312 312 312 311 310 309 308 308 307 306 305 304 303
299 299 299 299 299 299 299 299 299 300 300 300 301 301 300 301 301 301 301 301 301 301 301 301 302 302 302 303 303 303 303 303 303 304 304 304 305 305 305 305 306 305 306 306 306 306 306 306 307 307 308 308 309 309 309 310 309 309 309 309 310 310 309 309 309 311 310 311 310 310 310 311 312 311 310 309 310 310 310 309 307 306 305 304 303
299 299 299 299 299 299 299 299 299 300 300 300 301 300 300 300 300 300 300 300 300 300 300 300 301 301 301 301 301 301 301 301 302 302 302 302 302 302 302 302 302 303 304 304 304 304 305 305 305 305 306 306 306 307 308 307 307 306 307 307 307 307 307 307 308 308 309 309 308 308 308 309 310 309 309 308 308 308 308 307 307 306 306 305 303
299 299 299 299 299 299 299 299 300 300 300 299 300 300 299 299 299 299 300 299 299 299 299 299 300 300 299 299 299 300 300 300 300 300 300 300 300 300 300 300 300 302 302 301 302 303 303 303 304 304 304 304 305 305 305 305 304 304 304 304 304 304 304 304 305 305 306 306 307 306 306 307 307 307 307 305 305 305 305 304 304 304 304 303 302
299 299 298 299 299 298 298 299 299 299 299 299 299 299 299 298 298 299 298 297 298 298 298 299 299 299 298 299 299 298 298 298 299 299 298 298 298 299 299 298 299 300 300 300 300 300 301 301 301 302 302 303 303 303 303 303 302 302 301 302 303 303 302 302 302 303 303 304 303 304 304 304 305 303 302 302 302 302 302 302 301 300 300 300 300
298 298 298 298 298 299 300 299 299 299 298 298 298 298 298 298 298 298 297 297 297 297 298 298 298 298 298 298 298 298 298 298 298 298 297 297 297 297 297 297 298 298 298 299 299 299 299 299 299 300 301 300 300 300 300 301 301 301 300 300 301 301 302 301 301 301 302 302 301 300 300 301 301 300 300 300 301 300 300 300 299 299 298 298 298
298 298 298 298 299 298 298 298 298 297 298 298 297 297 297 297 297 296 297 297 297 297 297 297 297 298 298 298 297 297 297 297 297 297 297 297 297 297 297 297 297 297 297 297 298 298 298 298 298 299 299 299 300 300 300 300 300 300 300 300 300 300 300 300 301 301 298 300 300 299 299 299 299 298 298 298 299 298 298 298 298 298 297 297 297
299 298 299 298 297 297 297 297 297 296 296 297 297 297 296 297 296 296 295 296 296 296 296 297 297 297 297 296 296 296 296 296 296 296 296 296 296 296 296 297 296 296 296 297 297 297 297 297 297 297 298 298 298 299 299 299 299 299 299 299 299 299 299 299 299 299 299 299 299 299 299 299 298 298 298 298 298 297 297 297 296 296 297 297 296
298 299 298 297 297 296 296 296 296 296 295 295 295 296 296 296 296 295 295 295 295 295 296 296 296 296 296 296 295 295 295 295 295 295 295 295 295 295 295 295 296 296 296 296 296 296 296 296 296 297 297 297 297 297 298 298 299 299 299 298 298 298 297 297 297 297 298 298 298 298 297 298 297 298 298 297 297 296 296 295 295 296 296 296 295
297 297 298 298 297 296 296 296 295 295 295 295 295 294 294 294 294 294 294 294 294 294 295 295 295 295 295 295 295 294 294 294 294 295 295 294 294 295 295 295 295 295 295 295 295 295 296 296 296 296 297 297 296 296 297 297 297 297 297 296 296 295 295 295 295 296 296 296 296 296 297 297 297 297 297 297 297 296 296 295 296 295 296 295 295
297 297 297 297 297 296 296 295 295 294 294 294 294 294 294 294 294 294 294 293 293 294 294 294 295 294 294 294 294 294 294 294 294 294 294 294 294 294 294 294 294 294 295 294 294 295 294 295 296 296 296 297 297 297 298 297 296 296 296 296 296 296 295 295 295 295 295 296 296 296 296 297 296 293 292 293 294 295 296 295 295 295 294 293 293
297 297 297 297 296 295 295 295 294 294 293 293 294 294 293 293 293 293 293 293 293 293 293 294 294 294 294 293 293 293 293 293 293 293 292 292 293 293 292 293 293 293 293 293 293 293 294 294 294 294 295 296 296 297 293 291 292 293 294 295 295 295 295 294 294 294 294 295 295 295 296 291 290 290 290 291 292 292 292 294 296 295 293 292 292
297 297 296 295 295 294 293 293 293 293 293 293 293 293 293 293 293 292 292 292 292 293 293 293 293 293 293 292 292 292 292 292 292 292 291 291 291 291 291 291 292 291 292 292 292 292 293 293 293 293 293 294 295 295 291 292 292 293 293 294 294 294 294 294 293 293 293 293 294 295 295 293 291 290 291 290 291 292 292 292 292 292 293 293 291
296 296 295 294 294 293 293 293 293 293 292 292 292 292 292 292 292 292 292 291 292 292 292 292 292 292 292 291 291 291 291 291 291 290 290 290 290 289 290 290 290 289 290 291 291 291 292 292 292 292 292 293 293 291 292 292 292 292 292 293 294 293 293 293 293 293 293 293 294 294 294 295 295 294 294 294 292 291 291 291 291 292 292 292 293
296 295 295 294 294 294 294 293 293 292 292 292 292 292 292 291 291 291 291 291 291 291 292 291 291 291 291 290 290 290 290 290 289 289 289 288 288 289 288 288 288 289 290 290 290 290 290 291 291 291 291 292 292 291 291 291 291 291 292 292 293 293 293 292 293 293 293 293 293 293 293 293 294 290 290 292 293 293 291 290 290 290 290 291 292
296 295 294 294 294 294 293 293 292 292 291 291 291 291 291 291 290 291 290 290 291 291 291 290 290 290 290 289 289 288 288 289 288 288 288 287 288 287 288 288 288 288 288 288 288 289 289 290 290 290 290 290 291 290 290 291 291 291 291 291 292 292 292 292 292 292 292 292 293 293 292 292 293 293 293 292 292 291 292 292 291 291 291 290 290
294 294 294 293 293 293 292 292 291 291 291 291 291 290 290 290 290 290 290 290 290 290 290 289 289 289 288 288 288 287 287 287 287 287 286 286 287 287 287 287 287 287 287 287 287 287 288 288 288 288 288 288 290 289 290 290 290 290 290 291 291 291 291 291 291 292 292 292 292 292 292 292 292 292 293 292 291 291 290 289 289 288 289 290 289
294 293 293 293 293 292 292 291 290 290 290 290 289 289 289 289 289 289 289 289 289 289 288 288 287 288 287 287 287 286 286 286 286 286 286 286 286 286 286 286 286 287 287 287 287 287 287 287 287 287 287 287 289 289 289 289 289 289 290 289 290 290 290 290 290 291 291 292 292 292 292 291 291 291 291 291 291 290 289 288 288 288 288 288 288
294 294 293 293 293 292 291 290 290 289 289 288 288 288 288 288 288 288 288 288 288 287 287 287 286 286 286 286 286 285 284 284 285 284 284 284 284 285 285 286 285 285 285 286 286 286 286 286 286 286 286 286 287 288 288 288 288 288 288 288 288 288 288 289 289 290 291 291 292 292 292 291 291 291 290 291 292 290 288 287 287 287 287 287 288
292 292 291 291 291 290 290 289 288 287 287 287 287 287 288 287 287 287 287 287 287 286 286 286 286 286 285 285 285 284 283 283 283 283 283 284 284 284 285 285 284 284 284 285 285 286 286 286 286 285 286 285 286 286 286 287 287 288 288 287 287 287 287 288 288 289 290 290 291 288 288 291 290 290 290 291 291 290 288 287 287 286 286 286 286
291 291 290 290 290 289 288 288 287 286 286 286 286 286 287 286 286 286 286 286 285 285 284 284 284 285 285 284 284 283 282 282 282 282 282 282 283 283 284 284 284 284 284 285 285 285 285 285 286 285 285 285 285 285 286 286 287 287 287 287 287 287 286 287 288 288 289 290 290 289 288 288 289 289 290 291 291 289 288 287 287 286 285 285 286
290 290 290 289 288 287 287 286 285 284 285 285 286 286 285 285 285 285 285 284 283 283 284 284 284 284 284 283 283 282 281 281 280 281 281 282 282 283 283 283 283 283 284 284 284 284 283 284 285 285 285 285 285 285 285 286 286 287 287 286 286 286 285 286 286 287 287 287 289 289 290 290 290 290 290 291 290 290 288 287 287 286 285 285 287
288 287 287 287 287 286 285 284 284 284 284 284 284 285 284 284 284 284 283 282 282 282 282 282 283 282 282 281 281 281 280 280 280 280 281 281 282 282 282 282 281 282 283 282 282 282 283 283 285 285 285 285 286 285 285 286 286 286 287 286 286 285 286 286 286 286 286 286 287 288 289 290 290 290 290 290 290 290 289 288 287 286 286 287 287
287 286 287 286 285 285 284 283 283 282 283 282 282 282 282 282 282 281 281 281 281 281 281 281 280 280 280 279 279 279 279 279 279 280 280 280 281 281 281 281 282 282 281 281 281 282 283 283 284 285 285 285 286 285 285 285 285 286 286 287 286 286 286 285 285 285 286 286 287 288 288 289 289 289 289 289 289 289 289 288 287 289 289 288 286
286 284 284 285 284 283 282 281 281 281 280 279 279 279 279 280 279 280 279 279 279 279 279 278 278 278 278 278 278 278 278 278 278 279 279 279 280 280 280 281 281 281 281 281 281 282 282 282 283 285 286 286 286 286 285 285 285 286 286 287 287 286 287 286 285 285 285 286 287 287 288 287 288 287 288 288 288 289 288 287 289 289 288 288 286
284 283 282 283 282 281 281 280 280 279 278 277 276 276 276 276 277 278 277 277 277 277 277 277 277 277 277 277 277 276 277 277 278 278 278 278 279 280 280 280 281 281 281 281 281 282 282 282 282 283 285 286 286 287 286 285 285 285 286 286 287 287 287 286 286 285 286 287 286 287 287 288 288 287 287 287 288 287 287 288 288 289 288 287 285
282 280 279 280 279 279 279 278 278 277 276 275 274 273 273 273 275 275 275 275 276 276 276 276 276 276 275 276 276 276 276 277 278 278 278 278 278 279 279 280 280 280 280 280 280 281 281 282 282 282 284 285 286 287 287 286 285 285 286 286 286 286 286 286 285 285 286 286 286 287 287 287 287 287 287 287 286 286 287 287 287 288 286 285 283
280 278 277 277 278 277 277 276 275 275 274 273 272 272 270 272 273 273 274 275 275 275 274 274 274 274 274 274 274 275 276 277 277 278 278 278 278 278 278 279 279 279 280 280 280 281 281 281 282 283 284 285 285 286 286 286 285 285 285 285 285 285 285 285 284 284 285 285 286 286 286 286 286 286 285 285 284 285 286 286 286 286 285 283 282
277 276 275 276 275 275 274 273 273 273 272 271 270 270 270 271 271 273 274 275 274 273 273 273 273 273 273 274 274 274 274 275 276 277 278 278 278 279 278 278 279 279 279 280 280 280 281 281 281 282 283 284 284 285 285 285 286 286 285 285 285 285 285 285 285 286 285 286 286 286 285 286 285 285 285 285 284 285 285 285 285 285 283 283 282
275 274 274 273 272 272 271 271 271 271 270 269 268 269 270 271 272 274 274 273 272 272 271 271 271 272 272 273 272 273 273 274 274 275 275 276 277 278 278 278 278 278 279 279 279 280 280 280 281 281 282 282 283 283 284 284 284 285 285 285 285 284 284 285 285 285 285 285 285 285 285 284 284 284 284 284 284 284 285 285 283 283 282 282 282
273 272 272 272 270 269 269 268 269 269 267 267 267 269 270 272 273 273 272 270 270 270 270 270 271 271 271 272 272 272 272 272 273 273 274 275 275 276 276 277 278 280 280 279 279 279 280 281 281 281 281 280 281 281 283 285 285 285 284 284 284 284 284 284 285 286 285 285 284 283 283 283 283 282 282 282 283 284 283 283 282 281 281 281 280
272 271 270 268 268 267 267 266 267 267 266 266 267 269 271 272 270 269 270 269 269 269 269 269 270 270 270 271 271 271 271 272 272 272 273 274 277 278 278 277 277 279 281 281 282 280 281 282 281 282 283 281 281 282 284 285 285 285 285 285 285 285 285 285 285 286 285 283 282 282 282 282 281 282 281 282 282 281 280 280 280 281 280 279 278
270 268 267 266 266 266 265 264 265 266 265 266 267 270 269 267 268 268 269 269 269 268 269 269 269 269 269 269 270 270 271 271 271 272 272 273 273 275 278 278 279 279 280 280 281 282 283 283 283 282 283 285 285 285 285 285 285 285 286 285 285 286 285 285 286 285 284 282 281 280 280 281 281 281 281 281 280 280 279 279 278 279 279 278 276
Wind_Speed
3 4 3 2 3 3 4 4 6 8 9 11 11 12 12 12 12 14 12 12 12 11 12 11 11 11 11 12 13 10 10 8 8 9 8 8 10 12 12 12 12 12 13 12 11 11 10 10 10 8 8 7 8 10 10 10 8 7 6 5 4 5 6 7 5 3 4 6 5 7 8 8 9 9 11 9 10 9 8 9 9 9 9 9 8
5 5 2 2 2 2 2 4 5 8 8 9 12 12 11 12 14 12 11 12 13 14 12 11 12 11 10 9 9 9 10 10 10 8 9 8 9 9 9 10 10 10 7 7 6 6 6 6 7 8 9 10 11 10 8 8 6 5 6 7 8 9 9 8 5 5 4 7 7 6 7 7 10 11 11 12 12 10 10 10 10 10 10 9 8
4 5 3 3 2 2 2 3 4 6 5 9 10 10 11 11 12 11 10 11 12 12 12 12 11 10 10 8 9 9 9 10 10 8 6 7 10 11 12 12 12 12 11 10 8 8 8 7 6 7 9 8 8 10 10 10 9 10 11 10 7 8 8 5 8 10 8 5 5 4 9 9 7 8 10 13 13 13 11 11 11 11 13 10 8
5 4 4 3 2 1 1 2 3 3 5 5 6 9 8 9 9 10 10 10 10 11 10 12 11 10 11 10 10 9 7 3 6 8 10 11 10 6 7 7 7 9 13 13 12 12 10 9 9 10 10 10 9 9 9 10 9 9 9 9 8 5 6 8 10 10 9 5 5 8 6 2 10 9 8 9 13 14 12 13 11 12 13 10 7
5 4 2 3 2 2 1 1 1 3 4 5 6 6 5 8 8 9 8 9 9 9 9 10 9 7 4 1 3 3 2 6 7 6 5 4 7 10 11 10 9 8 7 8 7 9 11 11 10 9 7 6 7 7 7 9 10 9 9 8 10 9 8 8 8 10 11 10 9 3 3 5 9 8 5 9 8 8 12 14 11 12 12 9 9
3 3 3 3 2 1 2 2 2 2 2 2 3 5 5 5 6 7 6 7 8 8 9 9 9 8 6 5 5 6 7 5 8 10 8 8 9 6 8 10 11 11 11 11 10 9 10 9 9 9 9 8 8 10 12 10 9 10 12 12 13 13 10 8 6 7 9 12 13 12 8 7 3 2 1 8 4 8 6 9 11 12 12 11 10
1 1 1 2 2 2 4 3 2 2 2 1 1 2 4 4 4 5 5 5 5 6 8 8 8 8 10 10 8 8 10 9 8 9 10 9 8 9 9 8 8 8 9 10 12 10 11 12 12 11 11 9 7 7 6 6 7 10 10 11 11 11 11 9 9 7 7 11 12 14 12 8 8 5 11 10 17 5 5 6 8 9 9 11 12
2 3 4 3 3 3 4 4 4 3 2 1 2 2 3 3 3 4 3 3 4 6 7 8 7 8 8 9 9 10 11 11 9 9 9 8 9 9 9 9 8 8 9 9 10 9 8 10 11 12 11 12 11 10 11 12 11 9 11 10 9 10 11 11 11 11 10 8 9 10 12 13 12 12 12 10 11 11 11 5 7 8 7 9 11
3 3 4 4 4 5 4 5 4 4 3 3 2 2 3 3 4 3 3 3 4 7 7 8 8 8 9 9 10 10 10 10 8 2 4 7 9 9 9 10 10 9 9 11 11 11 9 8 8 9 9 8 7 7 7 7 10 10 10 10 11 9 8 9 9 10 8 9 6 9 11 12 12 13 11 8 8 10 16 12 13 7 9 8 8
4 4 4 5 5 5 4 4 6 5 4 3 3 3 3 3 4 5 4 4 4 7 8 9 9 8 8 9 9 8 7 8 6 8 7 6 8 9 9 8 7 7 9 10 11 12 11 11 9 10 10 10 9 10 11 13 13 12 11 11 10 12 10 11 12 11 9 9 11 9 8 7 9 8 10 11 11 12 15 12 8 9 10 7 10
5 5 6 6 5 5 5 8 6 6 5 5 5 5 5 5 5 6 4 3 2 3 4 6 6 6 6 7 7 8 8 7 7 6 7 7 7 7 8 8 8 9 8 8 9 10 11 11 11 11 10 9 7 7 8 8 8 10 11 11 12 13 10 11 10 11 9 8 9 11 10 8 10 10 11 10 10 8 9 12 13 13 13 14 9
4 5 6 7 8 8 7 8 8 7 7 7 5 5 5 5 6 7 6 4 3 3 2 2 2 3 4 5 6 7 6 6 7 8 8 8 8 8 7 8 8 8 8 8 8 10 10 11 11 12 12 11 12 11 12 9 7 6 7 8 8 11 10 10 8 10 12 10 11 10 10 10 10 11 7 5 8 8 9 15 11 9 9 11 6
5 5 5 6 6 6 7 7 7 7 6 6 6 5 5 5 6 7 6 4 4 3 3 2 2 3 3 4 5 5 5 6 7 7 7 7 7 7 7 7 7 8 8 9 10 10 9 10 10 10 10 10 11 12 11 10 10 9 8 9 10 11 9 10 9 12 13 14 13 13 12 12 13 11 8 9 8 7 8 13 13 8 11 12 9
4 5 5 6 5 6 6 6 7 6 7 6 6 5 5 5 6 8 7 4 4 3 3 2 2 1 1 2 3 3 5 5 6 5 6 6 5 7 6 7 7 8 8 9 8 9 9 9 9 10 10 11 11 11 12 11 12 12 11 10 9 8 8 10 12 13 10 11 9 9 12 13 13 12 12 10 11 10 12 13 12 11 9 14 11
3 5 5 6 6 6 6 6 6 6 7 6 6 6 5 6 6 7 8 6 6 5 4 4 3 2 1 1 2 2 3 3 3 4 4 5 5 6 6 6 7 7 7 8 8 9 10 9 10 10 10 10 11 11 10 11 11 11 11 14 14 13 13 11 11 13 13 13 12 11 11 8 8 7 8 9 8 10 11 10 9 12 12 13 13
4 5 6 7 6 5 6 6 6 6 7 6 7 6 6 6 7 8 8 7 6 6 5 4 4 3 3 2 2 2 2 2 2 2 2 3 4 5 6 6 6 6 7 7 8 8 9 9 10 11 11 11 11 11 12 11 10 11 11 12 15 9 10 15 13 12 15 16 17 13 10 12 9 7 8 8 8 9 9 11 11 11 13 17 14
4 4 5 6 6 6 6 6 6 6 7 8 7 7 7 7 8 9 8 8 8 7 6 5 4 4 4 3 3 2 2 2 2 3 3 3 3 4 5 5 6 6 6 6 8 8 8 8 9 9 10 10 11 11 11 11 11 10 11 13 14 12 11 13 11 11 11 11 12 14 14 13 12 11 9 8 8 8 8 8 8 11 10 13 15
4 5 5 5 5 6 6 6 7 7 7 7 8 6 6 6 8 8 8 9 8 7 7 6 6 5 5 5 4 3 3 3 3 3 3 2 3 3 4 4 5 5 5 6 6 8 8 8 8 9 9 10 10 10 10 11 10 10 11 12 12 11 13 11 10 10 11 8 10 10 11 11 9 7 11 10 7 8 8 9 9 9 9 15 13
5 5 5 4 5 5 6 7 7 7 7 7 6 6 6 7 7 8 8 7 6 5 5 5 6 4 4 5 5 5 4 4 3 3 2 2 3 4 4 5 5 5 5 5 6 6 6 7 8 9 8 9 10 10 10 10 11 11 11 12 13 12 11 12 12 11 11 10 11 12 11 10 10 12 11 10 10 10 9 8 11 9 11 15 15
5 5 4 5 5 5 6 6 6 6 6 5 5 5 7 6 6 6 6 5 6 6 5 6 5 5 5 4 5 5 5 4 4 4 3 3 4 4 5 5 5 5 5 6 5 6 6 7 7 8 9 9 9 9 9 10 10 11 11 11 11 11 13 12 13 10 9 11 13 14 12 11 11 9 9 9 9 10 10 11 11 11 11 10 11
5 5 5 5 6 6 5 5 6 5 5 5 5 6 5 5 6 6 7 6 7 6 6 5 4 5 5 6 6 6 7 5 5 4 4 5 4 5 5 5 5 5 5 6 6 6 6 6 7 7 8 8 9 9 8 9 10 11 11 11 12 12 13 13 12 14 12 13 13 14 14 12 11 13 12 11 11 11 12 12 11 12 13 12 11
6 5 5 5 6 6 5 5 4 5 5 6 4 5 6 7 6 5 6 7 7 7 6 6 5 5 7 7 6 5 5 5 4 4 5 5 5 5 5 5 5 5 5 6 6 5 6 6 6 7 7 8 9 9 9 9 10 11 12 10 11 11 12 14 13 14 11 10 11 12 13 12 11 12 12 10 9 9 8 9 9 9 12 11 11
6 5 5 5 5 5 5 6 6 6 5 5 6 6 6 6 6 6 7 7 6 5 5 5 5 6 7 6 5 6 5 5 5 5 7 6 6 6 5 6 5 5 5 4 5 6 6 6 6 7 7 7 8 8 9 9 10 11 12 11 10 11 13 13 13 13 12 11 11 12 13 11 10 11 12 11 11 12 11 12 13 10 11 12 10
5 5 5 4 5 4 4 5 5 5 5 6 5 5 5 6 5 5 7 7 6 5 5 6 6 6 6 5 5 4 5 5 6 5 7 6 5 5 5 5 5 5 6 5 5 5 6 6 6 7 7 7 7 8 9 9 11 11 11 12 11 12 12 12 13 13 13 12 11 12 13 11 11 13 13 11 11 11 11 11 12 11 12 13 11
6 6 6 6 5 6 5 5 5 5 5 5 5 5 5 5 6 6 6 5 5 4 5 5 5 5 5 4 5 5 6 7 7 6 7 6 6 5 4 5 6 6 6 6 5 4 5 5 5 7 7 7 8 8 9 9 10 11 12 12 12 12 12 12 13 12 12 11 11 12 12 11 11 13 13 12 11 12 11 10 12 11 10 11 10
7 7 6 6 5 5 5 5 4 4 4 4 3 3 4 5 7 5 5 4 4 3 4 4 4 4 4 6 6 6 7 7 7 6 7 7 6 6 6 4 5 6 6 5 5 5 5 6 6 7 7 8 8 8 9 9 9 10 11 11 12 12 13 13 13 13 12 11 13 12 12 11 11 13 14 12 11 12 11 12 13 12 11 10 11
8 7 6 6 5 5 5 4 4 4 4 3 4 5 5 5 6 6 4 4 4 4 5 5 5 5 5 6 6 6 5 6 5 6 5 5 5 5 5 6 5 5 5 6 6 6 5 5 6 6 7 7 8 8 8 8 9 10 10 12 12 13 13 12 11 12 12 11 12 12 12 12 12 13 13 13 11 12 11 13 13 12 12 11 12
5 6 8 7 6 4 4 3 3 3 5 5 4 4 4 5 5 5 4 4 3 4 5 5 5 5 5 5 5 5 5 5 5 5 5 5 5 5 5 5 5 6 6 6 7 7 7 6 6 6 6 6 7 7 8 8 8 9 10 12 12 12 13 12 12 12 12 11 12 12 12 12 13 13 12 12 12 12 11 13 11 11 12 12 12
7 6 6 7 6 4 4 3 3 4 5 3 2 2 2 3 4 4 3 4 4 4 4 4 5 5 6 5 5 5 5 6 6 6 6 7 6 6 6 6 6 6 5 6 6 6 7 7 7 7 7 6 6 7 5 6 9 10 10 11 12 13 13 14 13 12 11 12 12 12 12 12 13 15 17 17 16 15 12 12 12 10 11 11 11
9 8 7 5 5 4 3 2 2 2 1 1 2 1 2 3 3 4 4 4 4 4 4 4 4 5 5 6 6 6 6 6 7 7 8 8 8 7 7 7 7 7 7 7 7 6 6 7 8 8 7 6 6 6 8 12 11 10 11 11 11 13 13 13 13 13 13 11 12 11 12 16 17 18 18 19 20 21 21 17 14 10 10 10 10
8 8 8 7 5 4 3 2 2 2 2 2 2 2 1 2 3 3 3 3 3 2 2 3 4 4 5 5 5 6 6 6 6 6 7 8 8 7 7 7 7 7 8 7 7 8 7 7 8 8 8 6 6 6 12 14 15 16 12 12 12 13 13 13 11 12 13 13 11 12 12 12 13 15 16 19 20 22 21 22 24 22 17 13 10
10 9 8 7 6 6 5 5 4 3 3 3 3 1 2 4 3 3 3 3 2 2 3 4 4 4 5 5 5 6 6 6 6 6 7 7 6 5 6 7 7 6 7 7 7 7 8 8 7 8 8 7 7 8 12 14 15 15 14 12 12 12 12 12 12 12 13 13 13 12 12 10 10 12 12 13 15 19 21 22 23 22 22 22 20
10 10 9 8 8 7 6 4 3 4 4 2 1 2 4 3 3 3 3 2 3 3 3 4 4 4 5 6 6 7 7 6 6 6 6 5 4 4 4 5 5 7 7 7 8 8 8 8 7 9 9 8 8 9 12 13 14 15 16 14 12 12 13 13 13 13 13 13 13 12 12 10 10 14 13 13 13 14 16 20 21 22 21 21 20
8 8 8 8 6 5 4 4 4 3 1 1 2 3 3 2 2 2 2 2 2 3 3 4 3 4 4 4 5 5 6 6 6 6 6 5 5 5 6 6 5 5 6 6 5 7 8 8 8 9 10 9 9 10 13 12 14 15 16 15 12 13 13 14 14 14 12 13 13 13 12 12 11 11 11 11 11 13 13 12 12 12 12 14 18
10 9 8 7 7 7 7 6 4 2 2 2 3 3 2 2 2 2 2 2 2 1 2 2 3 3 3 4 5 5 6 6 7 5 6 5 6 7 6 6 6 6 6 7 7 7 7 7 8 7 9 10 8 10 12 13 15 17 17 15 12 12 12 13 13 13 13 13 13 12 12 13 13 12 10 11 11 12 11 12 12 12 12 12 11
10 11 9 9 8 8 7 6 4 3 3 3 3 2 2 2 1 1 0 0 1 0 1 3 3 4 4 5 5 6 6 7 8 7 7 8 7 6 8 8 6 6 6 6 6 5 7 7 7 7 10 11 10 11 13 13 15 16 18 11 10 11 12 13 13 13 13 13 12 11 11 12 13 13 13 15 15 13 11 13 14 13 12 11 11
9 9 9 7 7 7 6 6 5 4 3 3 2 2 1 1 2 1 0 0 2 3 5 6 5 6 7 7 7 8 8 8 8 8 8 8 9 9 8 7 8 8 7 7 7 7 7 8 9 7 8 10 10 8 10 14 15 16 14 8 9 10 11 12 13 13 13 13 13 13 13 12 12 12 13 16 17 16 12 14 14 14 12 11 11
9 8 7 7 6 6 6 6 6 5 4 3 2 1 1 2 2 2 2 3 5 6 7 7 7 8 9 9 8 8 9 9 9 9 9 9 8 7 6 6 8 9 10 8 8 9 7 6 7 9 8 9 11 12 12 14 15 15 12 10 9 10 11 12 12 13 11 12 14 15 14 13 13 13 15 18 18 15 12 13 13 13 15 12 10
9 9 9 8 7 8 7 6 5 6 4 3 2 1 2 3 4 4 4 6 8 8 9 10 10 9 9 9 8 8 8 9 9 9 9 10 9 9 8 7 7 8 10 9 7 8 9 8 5 7 13 12 10 13 12 11 15 15 11 8 9 9 11 11 11 12 12 11 11 11 14 15 15 15 20 18 18 15 12 12 12 12 13 13 12
7 6 7 8 8 8 7 6 6 5 3 3 2 2 3 5 5 5 7 9 9 9 9 8 9 9 8 8 7 8 8 8 10 10 9 8 8 8 8 8 9 8 9 10 9 9 11 11 10 8 10 9 10 10 12 12 14 16 14 9 8 9 10 12 11 11 12 11 11 11 12 13 17 19 19 21 21 20 14 11 10 9 11 14 10
8 8 8 7 6 6 7 6 5 5 5 4 4 3 5 6 6 7 8 8 8 8 8 8 8 8 8 8 7 8 9 9 8 9 10 9 8 8 9 8 9 9 8 10 11 10 10 11 9 7 9 9 8 9 13 13 13 16 17 12 8 9 10 11 12 12 11 12 11 11 11 12 14 16 16 17 19 20 17 13 11 10 11 11 4
8 7 7 7 6 7 7 7 6 6 5 5 4 5 6 6 6 8 7 7 8 8 8 8 8 8 9 8 8 8 8 8 8 8 10 10 8 7 8 8 8 9 11 12 13 10 10 11 12 9 9 12 11 13 9 11 14 16 16 17 10 9 10 10 13 13 12 11 12 11 11 11 13 13 14 16 19 19 20 12 12 17 18 17 5
9 7 5 5 6 6 7 6 5 5 6 6 6 7 6 6 6 7 7 8 7 8 8 8 9 9 9 10 9 10 10 8 9 8 10 12 10 9 9 8 9 9 10 13 13 10 10 12 11 11 9 10 10 10 13 10 13 15 17 17 18 15 16 12 12 14 13 12 11 11 12 14 13 14 17 17 18 20 17 12 19 19 18 16 8
7 7 5 5 6 6 6 6 5 6 6 7 7 6 6 6 6 6 7 7 7 7 8 8 8 9 9 9 9 9 9 8 8 9 9 10 10 9 10 8 7 8 9 10 10 10 10 11 12 12 10 8 6 7 9 11 11 14 16 17 18 20 19 13 13 13 13 13 13 12 12 15 16 17 17 18 18 18 13 17 18 18 15 12 7
8 6 5 5 5 6 6 6 6 7 7 7 7 6 5 5 5 6 6 6 7 7 7 8 8 9 9 9 9 9 9 9 8 9 10 10 10 9 10 9 8 10 10 11 11 10 11 12 12 13 13 11 9 7 7 10 12 13 16 18 18 20 19 19 15 13 13 12 15 19 19 20 18 16 17 19 17 16 18 19 18 16 10 7 7
7 6 6 5 5 6 6 6 6 6 6 6 6 6 6 5 6 6 6 6 7 8 8 8 8 8 9 10 11 10 9 9 10 8 8 8 10 11 10 11 10 10 10 11 13 12 12 12 13 13 14 15 14 10 9 7 8 9 11 14 17 17 18 18 17 16 20 24 23 22 23 20 17 14 10 8 8 8 12 13 14 11 7 6 6
7 5 4 4 5 4 5 5 5 5 6 6 6 5 4 5 6 6 6 6 7 8 8 8 8 9 9 9 10 9 10 10 9 8 9 9 9 9 11 11 10 10 11 11 12 11 12 13 13 13 13 14 15 16 12 8 7 7 7 9 11 12 14 15 13 12 13 12 12 12 11 13 12 14 13 13 11 11 10 8 6 6 6 7 7
6 6 5 6 6 5 4 5 4 4 5 5 4 3 3 4 5 5 5 6 7 7 7 8 9 8 7 8 9 11 11 10 10 9 10 10 9 9 10 11 11 10 11 13 12 12 13 13 13 14 14 14 14 13 11 9 8 8 10 14 13 13 12 11 12 11 11 11 12 12 12 9 8 8 8 7 7 7 7 5 4 6 5 4 6
6 5 6 5 4 4 4 4 3 3 4 3 3 3 3 4 4 5 6 6 6 7 7 8 8 7 8 8 8 9 9 10 11 11 10 10 10 11 12 14 14 11 11 12 13 15 15 14 13 14 15 15 15 16 13 10 11 11 14 15 15 14 13 13 14 19 15 13 11 10 9 9 8 8 8 7 6 6 4 5 6 7 7 7 7
6 6 6 6 5 4 3 2 1 2 2 3 3 3 3 5 6 5 6 6 7 7 7 7 7 7 7 8 8 9 9 9 10 11 12 13 13 17 15 14 16 20 23 23 21 18 17 16 16 16 15 16 16 16 20 23 26 26 26 25 25 26 24 20 21 24 17 13 10 9 8 8 8 7 7 7 6 3 4 4 5 8 6 5 6
6 6 5 5 3 3 2 0 1 2 3 3 3 3 4 6 5 6 6 6 7 7 7 6 7 7 8 10 10 9 9 9 10 10 11 13 15 14 16 20 22 24 27 28 26 28 30 30 22 19 18 25 28 30 30 32 31 30 28 26 25 26 26 25 23 16 12 10 8 8 8 7 7 7 7 5 4 4 5 6 5 5 5 6 6
Wind_Direction
350 323 298 278 262 245 234 227 221 217 216 214 211 214 214 217 220 226 224 222 221 221 222 221 220 222 226 233 235 234 230 224 221 218 216 209 204 212 208 207 198 199 206 208 208 213 214 209 204 198 189 187 212 223 220 222 214 201 210 204 201 220 235 229 221 197 257 268 241 245 252 236 240 237 243 241 240 240 240 242 242 241 238 235 228
296 291 273 249 245 236 225 214 209 210 211 208 214 213 213 213 218 221 222 223 224 224 224 221 224 223 223 223 229 232 229 222 224 215 218 216 227 229 219 215 215 212 209 217 219 214 211 216 205 205 201 204 209 216 211 211 195 193 206 222 213 219 234 210 183 148 231 234 257 268 254 240 228 228 231 236 237 235 234 236 236 236 236 235 232
294 289 284 277 267 249 236 226 218 222 209 205 212 210 210 210 216 217 217 221 225 227 227 226 224 226 228 235 229 235 235 239 235 227 219 230 218 213 220 224 218 220 215 211 220 223 224 224 222 218 210 207 207 217 217 214 205 201 202 213 214 212 228 194 194 191 235 221 232 291 272 280 243 222 227 235 230 227 225 227 230 232 234 229 227
301 314 315 326 320 285 217 214 213 208 214 215 207 209 211 215 214 213 217 219 226 225 225 229 227 227 230 242 241 240 234 201 234 240 240 232 232 236 246 243 236 224 215 210 208 212 209 217 222 225 217 208 209 214 215 215 210 216 209 209 212 214 209 225 206 208 218 198 239 222 270 291 286 259 249 232 220 225 220 225 226 233 235 226 221
297 317 350 350 355 7 344 267 214 210 208 213 206 206 209 211 210 209 213 218 221 224 219 227 227 222 213 157 244 247 263 247 247 244 235 255 260 238 235 232 234 238 235 219 215 219 215 218 216 218 221 211 210 214 211 211 203 206 201 208 210 221 222 214 206 203 210 218 240 240 218 244 237 272 308 273 227 219 221 228 230 231 231 223 222
273 321 339 335 352 21 94 105 131 179 206 218 229 220 215 213 209 207 212 212 214 218 221 218 219 221 200 200 210 212 226 218 225 239 245 232 236 244 257 249 246 245 245 243 226 213 230 234 235 234 228 215 205 213 222 218 207 207 205 202 209 216 231 223 221 189 208 218 230 243 247 267 312 126 23 289 169 220 219 217 230 235 236 235 231
148 267 6 55 54 92 84 62 54 69 55 20 248 234 225 224 213 209 210 212 209 216 216 215 219 223 226 228 233 240 245 248 247 246 248 248 245 244 245 243 238 242 246 246 250 240 235 232 228 230 232 228 217 226 237 220 210 211 211 209 211 204 207 229 220 211 198 227 226 234 249 260 249 261 260 282 283 247 207 231 229 235 234 235 240
26 64 68 68 64 53 66 61 56 43 33 115 128 156 186 197 196 197 200 198 193 209 209 209 212 216 222 226 231 237 238 247 248 249 248 253 256 251 249 252 247 240 245 249 247 244 239 241 238 233 224 221 214 212 213 212 213 205 211 216 223 222 211 209 216 216 204 226 205 230 238 248 251 248 249 258 276 300 276 224 231 235 231 228 232
1 45 50 45 48 49 51 64 49 50 44 56 81 110 142 150 159 159 171 177 183 192 196 201 209 212 215 219 226 232 239 247 255 308 272 260 261 264 262 264 262 251 248 251 254 255 251 246 243 248 253 245 222 228 233 229 223 221 211 210 218 220 216 218 224 225 202 221 164 215 225 233 233 235 241 231 245 263 272 260 261 210 224 221 222
47 44 45 46 40 46 44 65 62 46 40 53 70 95 98 115 129 146 149 171 176 188 195 199 204 210 215 221 228 235 239 251 257 261 261 257 260 265 267 261 255 255 254 254 256 256 256 253 251 248 244 247 236 227 224 222 221 219 214 210 216 218 216 218 221 227 223 222 220 227 211 219 235 239 232 229 235 226 251 274 260 258 253 220 211
60 65 63 64 53 60 56 65 64 62 53 55 54 60 84 102 114 111 103 104 134 174 199 198 208 214 224 233 238 245 254 260 262 257 262 260 254 256 258 260 260 259 257 254 251 255 257 257 255 255 257 255 250 247 237 227 225 224 225 219 216 217 221 220 221 232 235 236 230 228 230 202 211 220 226 209 213 221 245 265 264 251 255 271 231
66 73 73 75 76 63 63 62 56 54 53 49 50 55 65 91 107 101 89 84 72 79 115 145 190 219 232 242 243 249 255 258 259 265 269 272 276 277 275 273 269 265 261 260 255 250 252 255 255 257 258 259 259 261 262 255 241 226 229 229 229 226 228 228 217 220 219 227 229 224 231 236 233 233 236 189 205 227 237 264 272 277 272 253 254
64 68 72 65 65 63 67 71 70 59 60 61 58 59 63 71 89 95 80 80 98 109 135 147 177 208 225 233 245 255 259 263 270 276 279 279 282 283 283 281 282 279 271 269 266 259 257 259 261 259 260 258 260 262 262 263 263 255 243 228 227 228 221 221 222 224 218 220 229 225 225 222 228 230 231 225 222 217 234 258 263 257 271 284 261
67 71 66 62 59 61 59 63 63 61 60 64 64 68 74 76 78 85 76 61 71 82 91 117 133 236 258 265 273 274 277 276 276 279 284 286 289 286 285 283 283 280 281 279 281 279 266 263 264 267 267 268 268 267 266 266 263 260 256 250 240 234 227 224 229 235 230 231 230 233 231 233 235 230 226 219 224 223 240 244 264 271 255 269 276
71 68 62 64 61 60 63 61 60 59 61 58 54 58 64 65 64 72 71 57 57 58 61 59 61 45 21 298 266 259 255 259 259 268 277 277 277 277 277 278 279 283 284 288 291 284 282 276 270 268 268 268 266 266 266 266 265 264 262 262 262 258 251 235 229 229 236 233 228 230 239 232 232 225 219 223 216 223 228 232 234 263 274 264 267
77 85 77 68 64 67 71 69 65 66 63 60 56 49 58 63 67 66 66 59 55 54 53 46 43 45 30 12 353 318 293 283 274 253 263 271 276 279 279 274 277 285 287 291 292 291 288 286 280 273 273 272 270 268 268 266 265 264 264 264 263 259 261 261 255 241 238 240 243 243 242 245 238 226 216 217 218 221 224 231 230 239 261 277 276
90 82 84 84 78 68 67 65 68 65 61 59 54 46 51 54 60 62 60 57 49 43 46 39 41 41 46 32 19 348 322 309 308 311 302 291 282 277 282 290 292 286 288 298 297 296 292 288 283 281 278 275 273 272 270 268 269 268 264 262 263 264 262 261 258 256 256 252 249 246 245 249 246 242 233 216 223 225 229 230 222 236 239 255 275
95 87 81 77 77 79 72 65 62 62 65 64 59 51 48 47 50 59 50 49 38 36 36 33 28 33 31 32 26 14 356 341 326 327 321 311 303 295 295 296 299 300 301 295 294 296 296 289 283 282 279 275 272 269 267 266 266 266 266 267 267 270 268 267 263 262 261 260 259 258 254 254 247 228 245 241 235 229 228 226 224 222 222 241 252
123 113 105 97 90 83 82 81 73 70 68 69 68 62 63 63 58 63 65 58 49 38 35 39 31 29 20 19 16 14 13 359 349 331 317 320 328 323 316 310 305 306 304 306 301 299 294 292 290 287 285 283 281 279 277 274 268 264 261 261 261 259 258 260 261 259 262 259 259 258 253 251 252 255 253 244 238 234 233 231 233 225 225 232 247
137 132 126 117 102 89 88 87 83 82 84 81 77 76 74 72 73 78 78 75 66 55 52 49 37 32 26 24 28 19 14 6 353 343 344 356 348 338 329 319 325 319 309 306 300 295 293 291 289 288 287 285 283 281 279 276 273 265 266 265 266 266 265 263 266 260 259 257 256 257 253 252 253 244 242 239 240 234 235 239 235 235 233 228 240
150 143 131 119 108 100 92 94 98 96 91 82 80 75 69 69 67 65 71 69 63 53 53 53 46 43 38 38 29 22 16 8 360 359 355 8 2 349 345 334 319 315 321 312 304 300 297 293 290 287 286 286 285 283 279 277 273 271 269 269 271 268 268 268 265 268 258 259 259 258 260 255 254 254 255 251 243 238 235 235 230 225 231 224 221
147 136 124 117 110 108 110 100 93 90 78 75 70 76 64 55 49 44 56 46 47 41 38 36 42 41 40 32 28 26 16 4 354 4 12 11 8 358 345 329 324 324 326 315 308 309 304 301 296 292 289 286 284 284 284 279 277 277 276 274 273 269 266 269 268 266 265 257 260 261 260 259 251 253 256 252 247 247 242 244 238 232 238 234 216
139 127 113 102 96 95 88 85 79 74 71 66 60 57 56 51 45 42 49 47 45 45 41 42 42 43 37 31 25 23 7 359 6 14 13 10 3 357 349 337 335 329 322 313 316 312 309 304 296 292 291 290 290 288 286 281 277 275 277 274 271 272 272 272 270 267 265 263 260 259 262 260 258 256 255 253 251 249 248 245 247 238 241 240 227
128 119 113 108 110 108 95 83 73 63 59 59 62 62 60 52 44 45 46 36 36 33 38 40 39 41 31 26 26 6 5 6 13 14 8 4 353 351 346 335 334 326 328 327 316 317 311 305 298 293 289 287 286 285 287 284 281 280 278 276 276 273 270 269 269 270 269 263 260 262 261 257 256 256 256 253 249 246 244 244 245 240 237 239 232
144 134 127 123 108 91 79 68 60 48 44 44 47 51 53 51 45 39 39 33 30 27 41 46 38 41 35 29 20 13 12 12 10 5 1 355 354 350 349 341 339 336 335 329 327 321 313 308 305 302 301 296 291 287 285 285 283 282 280 278 276 275 273 272 272 272 270 265 263 260 264 260 255 255 258 251 252 248 244 244 245 242 238 238 237
147 140 134 115 102 97 89 83 72 54 36 26 29 54 58 59 50 40 31 27 25 29 42 51 42 41 33 25 19 13 11 8 2 0 355 349 348 349 342 341 339 330 329 325 324 327 319 312 306 303 298 295 293 290 286 285 284 286 285 282 281 278 276 275 274 273 270 266 265 265 263 261 256 254 258 258 252 251 248 244 245 244 240 238 238
155 143 124 115 111 100 99 89 85 76 56 24 5 14 38 49 47 39 27 19 14 19 34 40 34 35 31 22 15 10 1 356 354 347 338 338 341 337 338 338 335 324 326 329 329 324 320 311 306 304 299 298 296 293 291 291 290 288 288 289 285 282 279 278 273 271 268 265 261 262 262 258 256 255 257 258 256 254 248 247 244 243 241 238 238
140 142 143 134 122 113 95 77 65 64 46 35 4 350 21 40 38 26 16 18 7 13 23 28 22 25 24 12 6 357 350 346 340 333 333 336 335 334 335 329 326 328 331 329 327 325 320 312 309 303 300 299 295 292 289 289 288 292 295 292 287 282 283 278 275 272 268 265 263 261 260 257 254 255 255 258 253 255 252 251 245 239 242 238 240
162 153 143 140 138 126 112 87 63 46 51 21 317 333 17 48 49 28 17 17 5 12 20 21 19 21 12 360 352 350 343 344 338 339 341 340 333 328 325 320 321 318 313 315 313 314 313 310 307 306 308 304 297 294 293 301 305 299 293 292 291 287 284 285 283 278 270 266 265 261 259 259 254 255 254 254 254 251 252 256 249 235 239 239 242
167 162 154 142 131 134 119 108 69 66 66 290 292 316 23 46 44 26 19 15 4 15 15 13 20 13 359 354 347 350 347 343 349 346 344 338 335 334 330 328 325 323 318 315 313 306 304 305 307 307 302 299 297 293 296 296 289 291 297 293 291 290 288 285 285 283 279 267 267 267 263 258 257 256 255 255 255 254 251 249 255 244 235 237 238
163 156 155 149 146 147 146 162 168 182 206 234 244 246 163 79 55 35 26 11 1 8 16 15 16 6 355 348 349 350 341 343 342 335 334 332 329 326 320 318 320 319 317 319 315 313 313 310 306 305 303 295 291 291 297 297 299 299 299 296 293 292 289 285 281 281 281 282 273 269 270 266 260 256 256 255 256 256 254 252 250 248 244 238 238
168 162 156 159 166 169 178 183 184 190 206 224 228 209 65 55 39 33 18 354 2 15 19 20 12 360 360 354 346 340 337 335 337 336 327 320 311 307 310 313 313 317 319 313 308 309 309 308 303 300 296 295 290 288 292 295 293 291 292 293 294 292 289 286 283 280 281 281 280 278 272 270 264 261 260 260 256 254 254 254 253 251 248 243 239
166 165 167 169 170 174 174 165 178 197 202 208 263 39 52 32 25 18 356 3 10 22 19 23 11 5 0 350 344 341 334 333 334 328 318 310 310 307 314 322 320 318 307 311 313 312 308 309 305 309 306 301 298 297 300 291 288 292 291 291 291 289 288 285 284 281 281 282 282 280 280 271 266 261 259 257 262 264 258 255 254 255 253 249 246
157 160 162 162 155 154 156 171 185 184 176 77 45 41 38 30 18 2 10 8 17 19 21 16 7 7 352 344 339 331 326 324 321 322 326 324 326 326 324 315 307 311 311 308 312 310 311 315 315 311 306 301 296 302 300 289 288 291 293 293 290 288 285 283 283 282 279 279 278 279 281 278 272 263 258 259 258 260 263 262 258 253 251 250 248
161 159 159 155 152 154 163 171 155 123 80 61 59 44 31 58 47 29 22 15 33 3 24 10 354 356 343 338 330 326 324 326 329 328 327 325 323 320 317 322 319 316 315 317 316 316 312 308 305 304 302 293 285 296 293 288 290 293 295 295 288 284 282 282 281 279 278 275 275 271 270 274 275 271 261 257 260 259 262 261 258 257 252 251 247
161 155 152 154 162 161 154 136 131 108 76 56 45 33 52 76 81 45 40 150 259 20 21 3 354 355 350 343 340 338 336 335 333 330 327 326 325 324 321 323 315 308 303 296 294 286 286 294 293 288 294 290 285 292 295 290 292 292 296 293 287 285 284 283 283 281 281 278 274 269 268 270 271 269 269 262 258 260 260 262 261 260 259 254 252
130 137 141 143 143 139 131 127 110 80 72 48 32 37 89 120 91 55 10 7 23 27 11 1 357 353 352 350 349 346 339 337 336 333 331 330 330 326 323 326 316 308 301 298 292 290 285 288 289 288 281 285 283 279 285 289 289 291 296 293 290 284 281 282 284 286 284 283 277 273 270 269 272 272 271 269 266 260 258 259 261 262 262 261 260
123 121 130 136 131 119 114 111 101 81 58 40 23 35 104 82 50 25 16 29 30 20 5 360 355 354 349 349 350 348 341 336 334 333 324 319 315 306 306 314 308 307 303 296 295 294 284 272 279 286 286 288 286 286 287 287 288 289 288 289 291 291 287 287 287 285 285 282 280 271 267 273 272 272 271 269 268 264 261 260 261 263 263 260 259
136 143 137 132 125 116 112 102 87 72 49 34 23 29 86 71 43 22 28 30 23 9 3 356 349 346 344 344 341 339 335 329 324 320 320 314 314 312 307 310 306 303 295 298 298 296 291 286 263 280 296 290 277 287 288 281 285 289 289 286 289 291 290 289 290 290 288 285 283 279 265 260 266 271 273 273 269 265 263 262 261 262 260 261 262
115 98 106 113 120 118 102 84 70 58 39 24 6 80 71 54 30 32 34 26 12 0 348 342 338 337 336 335 333 329 324 326 319 311 309 304 305 307 308 311 306 303 300 302 301 296 294 291 288 281 284 280 280 281 290 282 284 285 283 281 287 288 286 290 289 291 294 291 285 283 276 263 263 267 269 271 272 271 267 265 260 249 256 258 265
124 123 120 110 107 100 93 82 68 47 36 19 13 45 45 36 28 36 34 17 358 346 341 336 332 328 327 326 325 324 319 314 311 309 307 301 302 306 307 307 304 303 300 298 297 293 289 286 285 275 279 277 267 271 282 280 276 280 284 282 281 277 280 284 289 289 285 288 289 284 283 273 267 265 267 270 275 274 268 264 258 248 246 264 259
100 113 121 118 114 105 98 82 62 51 42 29 27 51 43 32 32 35 21 2 349 343 337 332 326 322 317 315 315 315 312 308 309 309 311 306 302 295 293 298 301 298 297 296 297 294 292 289 289 277 274 283 275 268 272 273 272 274 275 277 274 272 272 283 284 283 282 280 278 281 281 278 274 271 271 271 271 272 269 266 259 256 252 255 213
126 106 91 117 111 100 86 83 69 57 49 34 42 49 40 31 34 21 6 352 343 338 331 324 317 312 312 311 312 313 314 315 311 310 308 304 303 303 298 293 289 291 290 294 293 287 284 284 285 286 277 277 283 276 266 266 270 274 277 275 273 273 275 275 276 278 280 280 280 278 277 277 275 275 277 274 271 271 272 267 266 262 251 236 196
93 93 93 99 103 102 101 84 70 52 46 37 37 44 32 29 16 7 354 341 335 327 317 310 307 306 310 310 311 309 306 306 304 305 302 296 299 301 299 295 297 295 296 296 296 299 298 294 295 296 292 286 275 268 270 263 266 270 276 279 279 278 278 274 274 276 277 279 280 278 280 284 282 279 277 273 273 272 268 271 269 267 245 216 171
112 96 81 75 86 92 88 76 61 50 43 41 36 38 25 22 354 355 337 330 323 320 317 311 309 309 309 311 310 309 306 308 309 308 307 307 302 304 304 301 303 300 294 293 291 294 294 296 298 296 296 294 288 277 275 275 272 271 272 276 278 277 276 275 276 273 273 273 275 279 282 283 282 275 273 277 278 274 271 270 269 262 220 173 168
106 94 74 81 85 81 80 79 63 52 42 38 31 27 22 343 343 332 324 320 322 322 317 313 312 313 313 314 314 311 309 313 312 307 298 295 298 302 300 300 299 294 293 291 293 294 292 292 293 295 297 299 299 293 282 276 273 270 271 269 271 274 272 271 269 271 273 276 275 275 277 278 277 271 271 265 263 267 267 263 262 235 165 166 152
99 90 99 85 84 73 62 65 62 43 40 23 22 13 357 329 313 317 317 323 326 324 315 316 319 318 318 318 320 320 321 318 318 315 308 301 300 296 295 292 289 291 291 289 286 285 288 290 291 292 293 295 297 298 295 288 283 286 291 293 295 293 288 283 281 281 278 281 283 282 279 276 272 272 267 265 265 269 269 260 232 173 154 155 163
94 91 85 85 74 73 56 48 49 38 36 19 4 348 326 310 304 312 328 337 324 318 320 318 320 319 320 322 318 318 318 314 314 314 309 305 300 295 293 288 291 291 294 292 290 286 284 285 290 291 291 292 290 289 286 288 289 294 302 302 297 294 293 293 290 289 290 290 290 288 282 275 270 266 264 261 256 254 255 230 158 157 147 130 108
103 80 72 76 76 69 58 43 26 25 19 356 334 314 315 314 332 3 348 331 323 324 320 320 320 321 319 321 316 312 313 311 308 306 296 291 294 295 291 288 279 276 276 282 288 285 281 282 282 282 285 287 289 285 278 282 283 284 292 294 295 292 292 289 287 288 290 287 282 276 273 275 272 267 264 259 257 248 224 162 141 136 134 138 141
99 93 90 77 74 76 59 40 3 10 347 318 321 325 342 19 9 341 337 341 334 328 323 322 319 317 311 316 313 309 304 305 304 303 303 297 281 276 275 279 287 285 278 273 274 276 280 285 282 276 272 273 274 278 287 287 285 288 289 287 287 289 289 288 287 287 285 282 275 274 272 273 272 267 262 258 247 197 142 138 134 141 138 131 129
114 109 94 89 91 85 94 35 305 348 319 322 329 342 15 353 340 339 344 342 338 329 322 318 321 317 314 311 304 301 299 295 291 292 295 298 302 295 278 272 271 278 284 283 276 273 275 275 275 279 274 268 269 272 276 282 286 288 289 288 289 290 290 289 289 288 280 266 258 261 268 266 266 264 260 245 193 165 155 142 133 131 131 130 122